sat.trackr.live / text

‹ back to catalog

STARLINK-3594

NORAD 51895 · 2022-022AV

PAYLOAD ACTIVE UNKNOWN

§ Identity

Operator
Country
US
Launch date
2022-03-03
Launch site
AFETR
Launch vehicle
Mass (kg)
RCS (m²)

Purposes: comms

External: N2YO · Heavens-Above · Gunter

§ Orbital elements

Epoch: 2026-05-24T21:49:13.302336Z

Period
95.44 min
Inclination
53.2150°
Eccentricity
0.0001514
Mean motion
15.08837304 rev/d
Perigee alt
538.7 km
Apogee alt
540.8 km
Semi-major
6,917.9 km
B*
6.0639e-5
RAAN
16.9558°
Arg perigee
104.6433°
Mean anomaly
255.4727°
Rev number
23,475

§ Raw data

STARLINK-35941 51895U 22022AV  26144.90918174  .00000677  00000+0  60639-4 0  99992 51895  53.2150  16.9558 0001514 104.6433 255.4727 15.08837304234754

JSON: /api/v1/satellites/51895 · /tle

For live sub-satellite position, see the globe view (requires WebGL).

§ Visibility from observer

Set your observer location to see the next 7 days of passes ≥ 10°. The values pass through the URL so the page stays shareable.

No JS? Fill the form by hand. The geolocation button needs JavaScript.